Location: Dalton
(34.7700°N, 84.9700°W)
Time: 16:25:15
(UTC-04:00)

ISS - Pass Details

Date: 13 October 2017
Orbit: 401 x 408 km, 51.6° (Epoch: 19 October)

Event Time Altitude Azimuth Distance (km) Brightness Sun altitude
Rises 20:17:51 0° 320° (NW) 2,323 0.7 -15.3°
Reaches altitude 10° 20:20:02 10° 329° (NNW) 1,462 -0.6 -15.7°
Maximum altitude 20:23:05 35° 37° (NE) 681 -3.0 -16.3°
Enters shadow 20:23:18 34° 47° (NE) 687 -3.1 -16.4°
